User: anonymous   Login
Location: Plum
(40.5000°N, 79.7500°W)
Time: 06:22:03
(UTC-04:00)
Language:

MOZ.5/SAFIR/RUBIN 5/SL-8 - Orbit

View from above orbital plane
View from above orbital plane
View from above satellite
View from above satellite

Ground track
Ground track

The orbit data is extracted from the following two-line orbital elements,

1 28898U 05043G   15208.47517994  .00000118  00000-0  33739-4 0  9998
2 28898 097.8492 020.9283 0019485 196.6524 163.4039 14.59937863519040
Epoch (UTC): 27 July 2015 11:24:15
Eccentricity: 0.0019485
inclination: 97.8492°
perigee height: 679 km
apogee height: 707 km
right ascension of ascending node: 20.9283°
argument of perigee: 196.6524°
revolutions per day: 14.59937863
mean anomaly at epoch: 163.4039°
orbit number at epoch: 51904

The dashed part of the orbit path shows where the satellite is in the earth's shadow,  

DLR